Regional Weather Roundup
Issued by NWS Jackson, KY

Home | Current Version | Previous Version | Graphics & Text | Print | Product List | Glossary Off
Versions: 1 2 3 4 5 6 7 8 9 10 11 12 13 14 15 16 17 18 19 20 21 22 23 24 25 26 27

000
ASUS43 KJKL 130510
RWRJKL

EAST KENTUCKY HOURLY WEATHER ROUNDUP
NATIONAL WEATHER SERVICE JACKSON KY
1200 AM EST WED DEC 13 2017

NOTE: "FAIR" INDICATES FEW OR NO CLOUDS BELOW 12,000 FEET WITH
NO SIGNIFICANT WEATHER AND/OR OBSTRUCTIONS TO VISIBILITY.

* THESE REPORTS ARE NOT UNDER NWS QUALITY CONTROL AND MAY NOT
  REPORT WEATHER SUCH AS PRECIPITATION AND FOG.

KYZ079-080-083-085-087-088-110-112-115-119-120-130600
...EASTERN KENTUCKY...

CITY           SKY/WX    TMP DP  RH WIND       PRES   REMARKS
JACKSON        CLEAR     21   5  50 VRB7      29.98S WCI  12
LONDON         CLEAR     22   6  50 CALM      30.03S
SOMERSET*      CLEAR     23   9  54 W6        30.07F WCI  16
MONTICELLO*    CLEAR     24  11  57 NW9       30.08F WCI  14
WILLIAMSBURG*  CLEAR     23   9  54 W3        30.04S
MIDDLESBORO*   CLEAR     26   8  46 W3        30.03F
HARLAN APT*    CLEAR     25   5  42 W8        29.99S WCI  16
PIKE CO APT*     N/A     21   6  53 W13       29.96S WCI   9
BIG SANDY APT* PTCLDY    22   7  51 NW6       29.98S WCI  15
MOREHEAD APT*  PTCLDY    19   5  53 W6        30.02S WCI  11
$$

KYZ035-036-041-042-044-050-067-078-099-130600
...CENTRAL KENTUCKY...

CITY           SKY/WX    TMP DP  RH WIND       PRES   REMARKS
MT STERLING*   CLEAR     19  10  68 W5        30.03S WCI  13
FLEMING/MASON* CLEAR     16   8  68 W6        30.01F WCI   8
DANVILLE*      CLEAR     23   9  54 W7        30.05S WCI  15
LEXINGTON      CLEAR     19   7  59 W5        30.02F WCI  12
FRANKFORT      CLEAR     20   6  55 CALM      30.03S
LOUISVILLE     CLEAR     23   8  52 W7        30.06F WCI  15
LEBANON*         N/A     23   9  54 SW5       30.06S WCI  17
GLASGOW*       CLEAR     20  13  73 CALM      30.09S
BOWLING GREEN  CLEAR     26  10  50 SW3       30.11S
$$

KYZ091>093-OHZ055-061-077-WVZ005-015-034-035-042-130600
...SOUTHERN OHIO/WEST VIRGINIA...

CITY           SKY/WX    TMP DP  RH WIND       PRES   REMARKS
COVINGTON      CLEAR     17  10  74 W6        30.00S WCI   9
COLUMBUS       LGT SNOW  19  16  88 NW9       29.93S VSB 1   WCI   8
DAYTON         CLOUDY    18   9  68 W14       29.95F WCI   4
WILMINGTON     CLOUDY    17   8  67 W10       29.95F WCI   5
HUNTINGTON     FLURRIES  23  15  71 NW8       29.97S WCI  14
CHARLESTON     MOCLDY    22  10  60 NW14G21   29.93F WCI   9
PINEVILLE*       N/A     22   6  50 MISG      29.93S
BECKLEY        LGT SNOW  16   9  74 NW13      29.79S WCI   2
BLUEFIELD      CLOUDY    15   3  59 NW18G40   29.78R WCI  -2
LOGAN CO APT*    N/A     19   7  58 CALM      29.90S
$$

VAZ002-007-008-TNZ017-027-036-066-071-130600
...SOUTHWEST VIRGINIA/EAST TENNESSEE...

CITY           SKY/WX    TMP DP  RH WIND       PRES   REMARKS
WISE*          MOCLDY    19   9  63 W12       29.88S WCI   7
JONESVILLE*      N/A     25   5  42 W6G16     30.02S WCI  18
ABINGDON*      CLEAR     24   5  44 NW9G22    29.89F WCI  14
BRISTOL        CLEAR     25   6  44 W18G24    29.96S WCI  11
MORRISTOWN*    CLEAR     27   7  43 NW8       30.01S WCI  18
SEVIERVILLE*   CLEAR     25  12  58 CALM      30.04S
KNOXVILLE      CLEAR     29  10  45 W7        30.05S WCI  22
LAFOLLETTE*    CLEAR     27   9  46 CALM      30.07S
OAK RIDGE      CLEAR     29   9  43 NW3       30.07S
CROSSVILLE     CLEAR     23   7  50 NW7       30.02S WCI  15
NASHVILLE      CLEAR     29   9  43 CALM      30.12F
$$

...KEY TO REMARKS...
VSB - VISIBILITY IN MILES
WCI - WIND CHILL INDEX
HX  - HEAT INDEX

$$




USA.gov is the U.S. government's official web portal to all federal, state and local government web resources and services.